Zurück zum Katalog

TO-108

AktivAmateurfunkSSO
NORAD 44881·PAYLOAD·🇨🇳 China

Gestartet Dec 20, 2019 von Taiyuan Satellite Launch Center

Loading…

Nächste Überflüge (nächste 24 Stunden)

TLE

AktuellSource: Space-Track

Epoche: Sep 14, 2026, 21:40 UTC

1 44881U 19093C   26257.90344179  .00000935  00000-0  11117-3 0  9997
2 44881  97.7460 327.9169 0014168 146.0690 214.1435 14.86634861364744

Verfolge TO-108 in Echtzeit mit AllMySat

Download on the App Store